| time (UTC) | temp C | wind direction | speed KPH | gust KPH | rain 1hr cm | rain 24hr cm | rain mn cm | humidity % | barometer mb |
| 20260504002555 | 23 | 121 | 4.8 | 4.8 | 0.00 | 0.00 | 0.00 | 42 | 1018.5 |
| 20260504002053 | 23 | 130 | 6.4 | 6.4 | 0.00 | 0.00 | 0.00 | 42 | 1018.8 |
| 20260504001550 | 23 | 162 | 8.0 | 9.7 | 0.00 | 0.00 | 0.00 | 41 | 1018.7 |
| 20260504001046 | 23 | 186 | 9.7 | 12.9 | 0.00 | 0.00 | 0.00 | 42 | 1018.6 |
| 20260504000543 | 23 | 204 | 3.2 | 4.8 | 0.00 | 0.00 | 0.00 | 43 | 1018.9 |
| 20260504000041 | 23 | 91 | 6.4 | 9.7 | 0.00 | 0.00 | 0.00 | 43 | 1018.9 |
| 20260503235539 | 23 | 167 | 9.7 | 11.3 | 0.00 | 0.00 | 0.00 | 42 | 1019.0 |
| 20260503235036 | 23 | 182 | 12.9 | 17.7 | 0.00 | 0.00 | 0.00 | 41 | 1018.9 |
| 20260503234533 | 24 | 203 | 9.7 | 12.9 | 0.00 | 0.00 | 0.00 | 42 | 1018.9 |
| 20260503234031 | 24 | 115 | 8.0 | 11.3 | 0.00 | 0.00 | 0.00 | 41 | 1018.9 |
| 20260503233527 | 24 | 110 | 3.2 | 4.8 | 0.00 | 0.00 | 0.00 | 42 | 1019.0 |
| 20260503233023 | 24 | 174 | 6.4 | 6.4 | 0.00 | 0.00 | 0.00 | 42 | 1019.0 |
| 20260503232521 | 24 | 178 | 4.8 | 6.4 | 0.00 | 0.00 | 0.00 | 41 | 1019.0 |
| 20260503232018 | 24 | 162 | 6.4 | 6.4 | 0.00 | 0.00 | 0.00 | 42 | 1019.2 |
| 20260503231516 | 24 | 162 | 9.7 | 11.3 | 0.00 | 0.00 | 0.00 | 41 | 1019.1 |
| 20260503231012 | 24 | 136 | 6.4 | 9.7 | 0.00 | 0.00 | 0.00 | 41 | 1018.9 |
| 20260503230509 | 24 | 172 | 9.7 | 11.3 | 0.00 | 0.00 | 0.00 | 41 | 1018.9 |
| 20260503230007 | 25 | 153 | 12.9 | 16.1 | 0.00 | 0.00 | 0.00 | 39 | 1018.8 |
| 20260503225503 | 25 | 182 | 9.7 | 12.9 | 0.00 | 0.00 | 0.00 | 39 | 1019.0 |
| 20260503224958 | 25 | 135 | 17.7 | 20.9 | 0.00 | 0.00 | 0.00 | 38 | 1018.9 |
| 20260503224456 | 25 | 104 | 14.5 | 24.1 | 0.00 | 0.00 | 0.00 | 39 | 1019.0 |
| 20260503223953 | 25 | 164 | 8.0 | 11.3 | 0.00 | 0.00 | 0.00 | 40 | 1019.2 |
| 20260503223451 | 25 | 101 | 4.8 | 9.7 | 0.00 | 0.00 | 0.00 | 40 | 1019.3 |
| 20260503222946 | 25 | 169 | 11.3 | 12.9 | 0.00 | 0.00 | 0.00 | 38 | 1019.3 |
| 20260503222445 | 25 | 119 | 8.0 | 9.7 | 0.00 | 0.00 | 0.00 | 38 | 1019.3 |
| 20260503221943 | 25 | 169 | 16.1 | 17.7 | 0.00 | 0.00 | 0.00 | 39 | 1019.3 |
| 20260503221441 | 25 | 208 | 4.8 | 9.7 | 0.00 | 0.00 | 0.00 | 39 | 1019.5 |
| 20260503220937 | 25 | 194 | 12.9 | 14.5 | 0.00 | 0.00 | 0.00 | 38 | 1019.6 |
| 20260503220434 | 25 | 117 | 9.7 | 14.5 | 0.00 | 0.00 | 0.00 | 39 | 1019.5 |
| 20260503215931 | 25 | 128 | 9.7 | 11.3 | 0.00 | 0.00 | 0.00 | 37 | 1019.6 |
| 20260503215428 | 25 | 153 | 16.1 | 17.7 | 0.00 | 0.00 | 0.00 | 38 | 1019.8 |
| 20260503214926 | 25 | 190 | 11.3 | 16.1 | 0.00 | 0.00 | 0.00 | 36 | 1019.6 |
| 20260503214423 | 25 | 157 | 9.7 | 11.3 | 0.00 | 0.00 | 0.00 | 38 | 1019.8 |
| 20260503213920 | 25 | 153 | 11.3 | 12.9 | 0.00 | 0.00 | 0.00 | 38 | 1020.0 |
| 20260503213418 | 25 | 161 | 6.4 | 9.7 | 0.00 | 0.00 | 0.00 | 38 | 1020.1 |
| 20260503212914 | 25 | 85 | 8.0 | 9.7 | 0.00 | 0.00 | 0.00 | 36 | 1020.3 |
| 20260503212412 | 25 | 139 | 11.3 | 14.5 | 0.00 | 0.00 | 0.00 | 37 | 1020.3 |
| 20260503211910 | 25 | 127 | 9.7 | 12.9 | 0.00 | 0.00 | 0.00 | 39 | 1020.1 |
| 20260503211406 | 25 | 139 | 11.3 | 17.7 | 0.00 | 0.00 | 0.00 | 39 | 1020.3 |
| 20260503210901 | 25 | 166 | 9.7 | 12.9 | 0.00 | 0.00 | 0.00 | 38 | 1020.6 |
| 20260503210359 | 25 | 198 | 16.1 | 22.5 | 0.00 | 0.00 | 0.00 | 39 | 1020.7 |
| 20260503205853 | 25 | 196 | 6.4 | 6.4 | 0.00 | 0.00 | 0.00 | 39 | 1020.8 |
| 20260503205350 | 25 | 118 | 8.0 | 12.9 | 0.00 | 0.00 | 0.00 | 38 | 1020.8 |
| 20260503204847 | 25 | 84 | 14.5 | 17.7 | 0.00 | 0.00 | 0.00 | 39 | 1020.9 |
| 20260503204344 | 25 | 152 | 9.7 | 14.5 | 0.00 | 0.00 | 0.00 | 40 | 1020.9 |
| 20260503203841 | 25 | 191 | 11.3 | 14.5 | 0.00 | 0.00 | 0.00 | 38 | 1021.2 |
| 20260503203339 | 25 | 117 | 14.5 | 16.1 | 0.00 | 0.00 | 0.00 | 38 | 1021.0 |
| 20260503202836 | 25 | 102 | 14.5 | 16.1 | 0.00 | 0.00 | 0.00 | 37 | 1021.3 |
| 20260503202334 | 25 | 127 | 6.4 | 9.7 | 0.00 | 0.00 | 0.00 | 39 | 1021.4 |
| 20260503201832 | 25 | 138 | 17.7 | 20.9 | 0.00 | 0.00 | 0.00 | 37 | 1021.5 |
| 20260503201328 | 25 | 161 | 11.3 | 14.5 | 0.00 | 0.00 | 0.00 | 36 | 1021.6 |
| 20260503200826 | 25 | 136 | 11.3 | 16.1 | 0.00 | 0.00 | 0.00 | 38 | 1021.5 |
| 20260503200321 | 26 | 136 | 17.7 | 22.5 | 0.00 | 0.00 | 0.00 | 34 | 1021.5 |
| 20260503195819 | 25 | 77 | 6.4 | 16.1 | 0.00 | 0.00 | 0.00 | 39 | 1021.7 |
| 20260503195315 | 25 | 234 | 12.9 | 14.5 | 0.00 | 0.00 | 0.00 | 39 | 1021.9 |
| 20260503194813 | 25 | 201 | 11.3 | 14.5 | 0.00 | 0.00 | 0.00 | 38 | 1021.9 |
| 20260503194309 | 25 | 79 | 9.7 | 11.3 | 0.00 | 0.00 | 0.00 | 36 | 1021.9 |
| 20260503193805 | 25 | 164 | 14.5 | 17.7 | 0.00 | 0.00 | 0.00 | 37 | 1022.2 |
| 20260503193301 | 24 | 131 | 19.3 | 22.5 | 0.00 | 0.00 | 0.00 | 37 | 1022.2 |
| 20260503192757 | 25 | 163 | 4.8 | 6.4 | 0.00 | 0.00 | 0.00 | 38 | 1022.1 |
| 20260503192252 | 25 | 134 | 12.9 | 16.1 | 0.00 | 0.00 | 0.00 | 38 | 1022.0 |
| 20260503191749 | 25 | 166 | 6.4 | 6.4 | 0.00 | 0.00 | 0.00 | 40 | 1022.1 |
| 20260503191246 | 24 | 201 | 6.4 | 6.4 | 0.00 | 0.00 | 0.00 | 40 | 1022.4 |
| 20260503190743 | 24 | 218 | 4.8 | 6.4 | 0.00 | 0.00 | 0.00 | 41 | 1022.3 |
| 20260503190240 | 24 | 153 | 9.7 | 14.5 | 0.00 | 0.00 | 0.00 | 39 | 1022.4 |
| 20260503185737 | 24 | 145 | 1.6 | 4.8 | 0.00 | 0.00 | 0.00 | 42 | 1022.4 |
| 20260503185232 | 25 | 183 | 12.9 | 17.7 | 0.00 | 0.00 | 0.00 | 40 | 1022.8 |
| 20260503184727 | 24 | 159 | 14.5 | 16.1 | 0.00 | 0.00 | 0.00 | 38 | 1022.6 |
| 20260503184224 | 24 | 156 | 17.7 | 20.9 | 0.00 | 0.00 | 0.00 | 37 | 1022.8 |
| 20260503183720 | 23 | 106 | 9.7 | 14.5 | 0.00 | 0.00 | 0.00 | 38 | 1022.9 |
| 20260503183218 | 24 | 238 | 4.8 | 9.7 | 0.00 | 0.00 | 0.00 | 39 | 1023.0 |
| 20260503182716 | 24 | 128 | 4.8 | 4.8 | 0.00 | 0.00 | 0.00 | 38 | 1023.1 |
| 20260503182214 | 24 | 136 | 12.9 | 14.5 | 0.00 | 0.00 | 0.00 | 36 | 1023.3 |
| 20260503181710 | 25 | 146 | 16.1 | 22.5 | 0.00 | 0.00 | 0.00 | 37 | 1023.4 |
| 20260503181208 | 24 | 97 | 3.2 | 4.8 | 0.00 | 0.00 | 0.00 | 41 | 1023.2 |
| 20260503180704 | 23 | 170 | 9.7 | 12.9 | 0.00 | 0.00 | 0.00 | 39 | 1023.2 |
| 20260503180203 | 23 | 211 | 9.7 | 12.9 | 0.00 | 0.00 | 0.00 | 41 | 1023.7 |
| 20260503175659 | 23 | 127 | 11.3 | 12.9 | 0.00 | 0.00 | 0.00 | 41 | 1023.7 |
| 20260503175156 | 24 | 158 | 14.5 | 16.1 | 0.00 | 0.00 | 0.00 | 38 | 1023.9 |
| 20260503174652 | 23 | 85 | 3.2 | 4.8 | 0.00 | 0.00 | 0.00 | 44 | 1023.8 |
| 20260503174150 | 23 | 179 | 17.7 | 17.7 | 0.00 | 0.00 | 0.00 | 42 | 1023.8 |
| 20260503173645 | 23 | 195 | 6.4 | 9.7 | 0.00 | 0.00 | 0.00 | 41 | 1024.0 |
| 20260503173142 | 23 | 166 | 12.9 | 14.5 | 0.00 | 0.00 | 0.00 | 40 | 1023.8 |
| 20260503172638 | 23 | 90 | 6.4 | 9.7 | 0.00 | 0.00 | 0.00 | 40 | 1023.8 |
| 20260503172136 | 24 | 112 | 6.4 | 9.7 | 0.00 | 0.00 | 0.00 | 45 | 1024.1 |
| 20260503171632 | 23 | 191 | 12.9 | 16.1 | 0.00 | 0.00 | 0.00 | 40 | 1024.0 |
| 20260503171130 | 23 | 94 | 6.4 | 9.7 | 0.00 | 0.00 | 0.00 | 43 | 1024.1 |
| 20260503170626 | 23 | 173 | 4.8 | 6.4 | 0.00 | 0.00 | 0.00 | 43 | 1024.2 |
| 20260503170123 | 23 | 194 | 9.7 | 11.3 | 0.00 | 0.00 | 0.00 | 41 | 1024.5 |
| 20260503150515 | 21 | 199 | 8.0 | 11.3 | 0.00 | 0.00 | 0.00 | 56 | 1024.6 |
| 20260503131408 | 15 | 221 | 8.0 | 9.7 | 0.00 | 0.00 | 0.00 | 77 | 1024.2 |
| 20260503130905 | 15 | 217 | 4.8 | 6.4 | 0.00 | 0.00 | 0.00 | 78 | 1024.2 |
| 20260503130402 | 15 | 213 | 4.8 | 4.8 | 0.00 | 0.00 | 0.00 | 78 | 1024.4 |
| 20260503110806 | 11 | 247 | 0.0 | 1.6 | 0.00 | 0.00 | 0.00 | 89 | 1023.4 |
| 20260503110303 | 11 | 247 | 0.0 | 0.0 | 0.00 | 0.00 | 0.00 | 89 | 1023.1 |
| 20260503100229 | 12 | 233 | 1.6 | 3.2 | 0.00 | 0.00 | 0.00 | 89 | 1022.8 |
| 20260503090154 | 12 | 249 | 0.0 | 0.0 | 0.00 | 0.00 | 0.00 | 89 | 1022.9 |
| 20260503081624 | 12 | 253 | 0.0 | 0.0 | 0.00 | 0.00 | 0.00 | 89 | 1022.8 |
| 20260503081121 | 12 | 253 | 0.0 | 0.0 | 0.00 | 0.00 | 0.00 | 90 | 1022.6 |
| 20260503080617 | 12 | 233 | 0.0 | 0.0 | 0.00 | 0.00 | 0.00 | 89 | 1023.0 |
| 20260503080114 | 12 | 232 | 0.0 | 0.0 | 0.00 | 0.00 | 0.00 | 89 | 1023.1 |
| 20260503072551 | 13 | 248 | 0.0 | 0.0 | 0.00 | 0.00 | 0.00 | 87 | 1023.1 |
| 20260503072048 | 13 | 248 | 0.0 | 0.0 | 0.00 | 0.00 | 0.00 | 88 | 1023.1 |
| 20260503071545 | 13 | 249 | 0.0 | 0.0 | 0.00 | 0.00 | 0.00 | 87 | 1023.2 |
| 20260503071042 | 13 | 248 | 0.0 | 0.0 | 0.00 | 0.00 | 0.00 | 87 | 1023.2 |
| 20260503070538 | 13 | 248 | 0.0 | 0.0 | 0.00 | 0.00 | 0.00 | 86 | 1023.4 |
| 20260503054957 | 14 | 256 | 0.0 | 0.0 | 0.00 | 0.00 | 0.00 | 83 | 1023.3 |
| 20260503054453 | 14 | 256 | 0.0 | 0.0 | 0.00 | 0.00 | 0.00 | 83 | 1023.3 |
| 20260503053951 | 15 | 256 | 0.0 | 0.0 | 0.00 | 0.00 | 0.00 | 81 | 1023.5 |
| 20260503053448 | 15 | 256 | 0.0 | 0.0 | 0.00 | 0.00 | 0.00 | 79 | 1023.5 |
| 20260503052945 | 15 | 256 | 0.0 | 0.0 | 0.00 | 0.00 | 0.00 | 79 | 1023.6 |
| 20260503052443 | 15 | 249 | 0.0 | 0.0 | 0.00 | 0.00 | 0.00 | 78 | 1023.7 |
| 20260503051938 | 15 | 249 | 0.0 | 0.0 | 0.00 | 0.00 | 0.00 | 79 | 1023.4 |
| 20260503051434 | 15 | 239 | 0.0 | 0.0 | 0.00 | 0.00 | 0.00 | 79 | 1023.5 |
| 20260503050932 | 15 | 237 | 0.0 | 0.0 | 0.00 | 0.00 | 0.00 | 80 | 1023.5 |
| 20260503050427 | 15 | 225 | 0.0 | 0.0 | 0.00 | 0.00 | 0.00 | 79 | 1023.4 |
| 20260503045926 | 15 | 225 | 0.0 | 0.0 | 0.00 | 0.00 | 0.00 | 77 | 1023.3 |
| 20260503045423 | 15 | 225 | 0.0 | 0.0 | 0.00 | 0.00 | 0.00 | 76 | 1023.2 |
| 20260503044919 | 15 | 233 | 0.0 | 0.0 | 0.00 | 0.00 | 0.00 | 77 | 1023.3 |
| 20260503044416 | 15 | 233 | 0.0 | 0.0 | 0.00 | 0.00 | 0.00 | 77 | 1023.4 |
| 20260503043914 | 15 | 233 | 0.0 | 0.0 | 0.00 | 0.00 | 0.00 | 76 | 1023.4 |
| 20260503043411 | 16 | 208 | 0.0 | 0.0 | 0.00 | 0.00 | 0.00 | 76 | 1023.2 |
| 20260503042907 | 16 | 120 | 0.0 | 0.0 | 0.00 | 0.00 | 0.00 | 75 | 1023.3 |
| 20260503042403 | 16 | 120 | 0.0 | 0.0 | 0.00 | 0.00 | 0.00 | 74 | 1023.4 |
| 20260503041859 | 15 | 120 | 0.0 | 0.0 | 0.00 | 0.00 | 0.00 | 74 | 1023.1 |
| 20260503041357 | 15 | 119 | 0.0 | 0.0 | 0.00 | 0.00 | 0.00 | 75 | 1023.2 |
| 20260503040854 | 16 | 119 | 0.0 | 0.0 | 0.00 | 0.00 | 0.00 | 73 | 1023.2 |
| 20260503040352 | 16 | 119 | 0.0 | 0.0 | 0.00 | 0.00 | 0.00 | 72 | 1023.2 |
| 20260503035848 | 16 | 119 | 0.0 | 0.0 | 0.00 | 0.00 | 0.00 | 70 | 1023.2 |
| 20260503035346 | 16 | 120 | 0.0 | 0.0 | 0.00 | 0.00 | 0.00 | 70 | 1023.3 |
| 20260503034843 | 15 | 119 | 0.0 | 0.0 | 0.00 | 0.00 | 0.00 | 74 | 1023.1 |
| 20260503034340 | 15 | 119 | 0.0 | 0.0 | 0.00 | 0.00 | 0.00 | 73 | 1023.3 |
| 20260503033837 | 16 | 119 | 0.0 | 0.0 | 0.00 | 0.00 | 0.00 | 73 | 1023.2 |
| 20260503033335 | 16 | 119 | 0.0 | 0.0 | 0.00 | 0.00 | 0.00 | 72 | 1023.0 |
| 20260503032833 | 16 | 119 | 0.0 | 0.0 | 0.00 | 0.00 | 0.00 | 71 | 1023.0 |
| 20260503032331 | 16 | 119 | 0.0 | 0.0 | 0.00 | 0.00 | 0.00 | 69 | 1022.8 |
| 20260503031828 | 17 | 119 | 0.0 | 0.0 | 0.00 | 0.00 | 0.00 | 68 | 1023.0 |
| 20260503031326 | 17 | 119 | 0.0 | 0.0 | 0.00 | 0.00 | 0.00 | 67 | 1023.1 |
| 20260503030822 | 17 | 119 | 0.0 | 0.0 | 0.00 | 0.00 | 0.00 | 64 | 1022.8 |
| 20260503030319 | 17 | 119 | 0.0 | 0.0 | 0.00 | 0.00 | 0.00 | 63 | 1022.9 |
| 20260503025815 | 17 | 119 | 0.0 | 0.0 | 0.00 | 0.00 | 0.00 | 65 | 1022.9 |
| 20260503025313 | 17 | 119 | 0.0 | 0.0 | 0.00 | 0.00 | 0.00 | 65 | 1022.8 |
| 20260503024809 | 17 | 111 | 0.0 | 0.0 | 0.00 | 0.00 | 0.00 | 65 | 1022.8 |
| 20260503024306 | 17 | 91 | 0.0 | 0.0 | 0.00 | 0.00 | 0.00 | 64 | 1022.5 |
| 20260503023804 | 18 | 91 | 0.0 | 0.0 | 0.00 | 0.00 | 0.00 | 62 | 1022.3 |
| 20260503023301 | 18 | 91 | 0.0 | 0.0 | 0.00 | 0.00 | 0.00 | 62 | 1022.1 |
| 20260503022757 | 18 | 91 | 0.0 | 0.0 | 0.00 | 0.00 | 0.00 | 61 | 1022.2 |
| 20260503022257 | 18 | 91 | 0.0 | 0.0 | 0.00 | 0.00 | 0.00 | 59 | 1022.1 |
| 20260503021754 | 19 | 91 | 0.0 | 0.0 | 0.00 | 0.00 | 0.00 | 58 | 1022.0 |
| 20260503021249 | 19 | 90 | 0.0 | 0.0 | 0.00 | 0.00 | 0.00 | 57 | 1022.1 |
| 20260503020748 | 19 | 90 | 0.0 | 0.0 | 0.00 | 0.00 | 0.00 | 57 | 1022.0 |
| 20260503020245 | 19 | 91 | 0.0 | 0.0 | 0.00 | 0.00 | 0.00 | 56 | 1022.1 |
| 20260503015741 | 20 | 91 | 0.0 | 0.0 | 0.00 | 0.00 | 0.00 | 55 | 1022.1 |
| 20260503015238 | 20 | 91 | 0.0 | 1.6 | 0.00 | 0.00 | 0.00 | 55 | 1022.0 |
| 20260503014734 | 20 | 91 | 1.6 | 1.6 | 0.00 | 0.00 | 0.00 | 54 | 1021.9 |
| 20260503014232 | 20 | 91 | 1.6 | 1.6 | 0.00 | 0.00 | 0.00 | 53 | 1021.9 |
| 20260503013729 | 20 | 80 | 0.0 | 0.0 | 0.00 | 0.00 | 0.00 | 53 | 1022.0 |
| 20260503013227 | 20 | 77 | 0.0 | 0.0 | 0.00 | 0.00 | 0.00 | 52 | 1021.9 |
| 20260503012724 | 20 | 84 | 3.2 | 3.2 | 0.00 | 0.00 | 0.00 | 52 | 1021.9 |
| 20260503012221 | 20 | 74 | 1.6 | 1.6 | 0.00 | 0.00 | 0.00 | 52 | 1021.9 |
| 20260503011718 | 20 | 74 | 1.6 | 3.2 | 0.00 | 0.00 | 0.00 | 52 | 1021.6 |
| 20260503011215 | 20 | 73 | 3.2 | 3.2 | 0.00 | 0.00 | 0.00 | 51 | 1021.7 |
| 20260503010711 | 20 | 64 | 3.2 | 3.2 | 0.00 | 0.00 | 0.00 | 51 | 1021.8 |
| 20260503010208 | 21 | 70 | 1.6 | 3.2 | 0.00 | 0.00 | 0.00 | 50 | 1021.6 |
| 20260503005706 | 21 | 69 | 1.6 | 1.6 | 0.00 | 0.00 | 0.00 | 49 | 1021.6 |
| 20260503005203 | 21 | 78 | 1.6 | 3.2 | 0.00 | 0.00 | 0.00 | 47 | 1021.8 |
| 20260503004658 | 21 | 51 | 3.2 | 4.8 | 0.00 | 0.00 | 0.00 | 48 | 1021.6 |
| 20260503004157 | 21 | 80 | 4.8 | 6.4 | 0.00 | 0.00 | 0.00 | 46 | 1021.6 |
| 20260503003654 | 21 | 72 | 3.2 | 4.8 | 0.00 | 0.00 | 0.00 | 46 | 1021.6 |
| 20260503003151 | 21 | 29 | 4.8 | 4.8 | 0.00 | 0.00 | 0.00 | 45 | 1021.5 |